User: anonymous   Login
Location: Unspecified
(0.0000°N, 0.0000°E)
Time: 21:52:47
(UTC+00:00)
Language:

CP4 - Orbit

View from above orbital plane
View from above orbital plane
View from above satellite
View from above satellite

Ground track
Ground track

The orbit data is extracted from the following two-line orbital elements,

1 31132U 07012Q   17082.83905819 +.00000236 +00000-0 +58061-4 0  9996
2 31132 098.0203 041.5213 0081992 046.8238 313.9775 14.58795018528019
Epoch (UTC): 23 March 2017 20:08:14
Eccentricity: 0.0081992
inclination: 98.0203°
perigee height: 639 km
apogee height: 755 km
right ascension of ascending node: 41.5213°
argument of perigee: 46.8238°
revolutions per day: 14.58795018
mean anomaly at epoch: 313.9775°
orbit number at epoch: 52801

The dashed part of the orbit path shows where the satellite is in the earth's shadow,  

DLR